Tracking 25995 objects as of 19-Aug-2022
HD Live streaming from Space Station
objects crossing your sky now

THOR ABLESTAR DEB *

Track THOR ABLESTAR DEB * now!
10-day predictions


NORAD ID: 18651
Int'l Code: 1961-015LW
Perigee: 932.1 km
Apogee: 2,092.5 km
Inclination: 65.7 °
Period: 116.1 minutes
Semi major axis: 7883 km
RCS: 0.0068 m2 (small)
Launch date: June 29, 1961
Source: United States (US)
Launch site: AIR FORCE EASTERN TEST RANGE (AFETR)

Note: This is SATELLITE DEBRIS
aabbcc
Your satellite tracking list
Your tracking list is empty




NASA's NSSDC Master Catalog

Two Line Element Set (TLE):
1 18651U 61015LW  22230.66027061  .00000003  00000-0  17001-3 0  9996
2 18651  65.6988 118.1130 0736016  76.6814  10.3726 12.40345523430842
Source of the keplerian elements: AFSPC